Weather History for KCDJ - November, 2012

Change the Weather History Date:

Friday, November 30, 2012

  Actual Average (KIRK) Record (KIRK)
Temperature  
Mean Temperature 48 °F 34 °F  
Max Temperature 61 °F 43 °F - ()
Min Temperature 34 °F 25 °F - ()
Degree Days  
Heating Degree Days 18 31  
Month to date heating degree days 735  
Since 1 July heating degree days 1221  
Cooling Degree Days 0 0  
Month to date cooling degree days 0  
Year to date cooling degree days 939  
Moisture  
Dew Point 34 °F    
Average Humidity 68    
Maximum Humidity 86    
Minimum Humidity 39    
Precipitation  
Precipitation 0.00 in 0.08 in - ()
Month to date precipitation 2.72  
Year to date precipitation 37.56  
Sea Level Pressure  
Sea Level Pressure 30.07 in    
Wind  
Wind Speed 4 mph (SSW)    
Max Wind Speed 7 mph    
Max Gust Speed -    
T = Trace of Precipitation, MM = Missing Value Source: NWS Daily Summary

Daily Weather History Graph

Daily Weather History Graph

Search for Another Location

Airport or City:

Trip Planner

Search our weather history database for the weather conditions in past years. The results will help you decide how hot, cold, wet, or windy it might be!

Date:

Astronomy

Nov. 30, 2012 Rise Set
Actual Time 7:15 AM CST 4:50 PM CST
Civil Twilight 6:46 AM CST 5:20 PM CST
Nautical Twilight 6:12 AM CST 5:53 PM CST
Astronomical Twilight 5:40 AM CST 6:26 PM CST
Moon 6:45 PM CST (11/30) 8:48 AM CST (11/30)
Length of Visible Light 10h 34m
Length of Day
9h 34m
Waning Gibbous, 96% of the Moon is Illuminated
Nov 30
Waning Gibbous
Dec 6
Last Quarter
Dec 13
New
Dec 19
First Quarter
Dec 28
Full

Hourly Weather History & Observations

Time (CST) Temp. Windchill Dew Point Humidity Pressure Visibility Wind Dir Wind Speed Gust Speed Precip Events Conditions
12:52 AM 46.0 °F 42.5 °F 35.1 °F 66% 30.02 in - SSW 6.9 mph - N/A   Unknown
1:52 AM 43.0 °F 38.8 °F 34.0 °F 71% 30.03 in - South 6.9 mph - N/A   Unknown
2:52 AM 39.9 °F 35.8 °F 33.1 °F 77% 30.04 in - South 5.8 mph - N/A   Unknown
3:52 AM 37.9 °F 33.5 °F 32.0 °F 79% 30.02 in - South 5.8 mph - N/A   Unknown
4:52 AM 37.9 °F - 32.0 °F 79% 30.04 in - Calm Calm - N/A   Unknown
5:52 AM 36.0 °F 32.1 °F 32.0 °F 86% 30.05 in - South 4.6 mph - N/A   Unknown
6:52 AM 35.1 °F 32.2 °F 30.9 °F 85% 30.07 in - South 3.5 mph - N/A   Unknown
7:52 AM 34.0 °F - 30.0 °F 85% 30.09 in - Calm Calm - N/A   Unknown
8:52 AM 45.0 °F 41.8 °F 36.0 °F 71% 30.09 in - SW 5.8 mph - N/A   Unknown
9:52 AM 48.0 °F - 35.1 °F 61% 30.10 in - West 6.9 mph - N/A   Unknown
10:52 AM 51.1 °F - 35.1 °F 54% 30.11 in - SW 5.8 mph - N/A   Unknown
11:52 AM 54.0 °F - 36.0 °F 51% 30.09 in - Variable 3.5 mph - N/A   Unknown
12:52 PM 57.0 °F - 37.0 °F 47% 30.06 in - SW 3.5 mph - N/A   Unknown
1:52 PM 61.0 °F - 36.0 °F 39% 30.06 in - Variable 3.5 mph - N/A   Unknown
2:52 PM 60.1 °F - 36.0 °F 41% 30.06 in - Calm Calm - N/A   Unknown
3:52 PM 57.9 °F - 36.0 °F 44% 30.07 in - Calm Calm - N/A   Unknown
4:52 PM 52.0 °F - 36.0 °F 54% 30.06 in - Calm Calm - N/A   Unknown
5:52 PM 46.9 °F - 36.0 °F 66% 30.08 in - Calm Calm - N/A   Unknown
6:52 PM 42.1 °F - 34.0 °F 73% 30.09 in - Calm Calm - N/A   Unknown
7:52 PM 37.9 °F - 32.0 °F 79% 30.10 in - Calm Calm - N/A   Unknown
8:52 PM 37.0 °F - 30.9 °F 79% 30.08 in - Calm Calm - N/A   Unknown
9:52 PM 37.9 °F - 33.1 °F 83% 30.07 in - Calm Calm - N/A   Unknown
10:52 PM 37.0 °F - 33.1 °F 86% 30.06 in - Calm Calm - N/A   Unknown
11:52 PM 39.0 °F - 33.1 °F 79% 30.06 in - Calm Calm - N/A   Unknown